Wind_Gust
12 13 10 12 14 16 19 18 24 21 19 21 14 20 24 13 11 15 12 16 18 18 16 11 11 18 17 15 17 21 24 23 19 24 19 15 12 14 15 17 16 18 17 19 22 22 23 21 22 22 22 22 21 20 20 19 19 19 19 19 19 18 18 18 17 16 15 15 15 15 15 14 13 13 11 11 11 11 11 12 13 13 13 16 15 17 17 18 17 17 17 18 20 20 20 19 18
13 10 11 12 16 18 20 10 24 15 16 17 17 12 15 12 15 12 13 16 18 24 15 13 11 11 12 14 16 16 23 22 19 21 17 17 15 17 17 16 16 19 17 19 17 19 21 22 17 19 21 21 20 20 19 19 19 18 18 18 18 17 17 17 16 16 15 15 14 14 14 13 13 12 11 10 10 10 14 21 21 18 17 15 16 18 18 17 16 17 16 17 19 21 21 19 18
12 13 14 15 17 22 15 20 25 16 17 18 19 13 16 16 15 13 13 16 17 18 11 10 9 11 12 18 20 17 17 14 15 16 18 15 17 15 16 14 15 18 18 18 19 17 20 18 16 17 18 20 20 19 19 18 19 19 18 17 17 17 17 16 16 15 15 14 14 13 12 13 12 12 11 10 10 10 15 21 22 16 14 16 15 16 15 16 15 15 16 17 18 21 21 19 18
15 13 17 15 21 14 24 18 20 17 15 14 15 16 15 11 12 14 14 13 15 15 10 11 14 12 16 10 16 18 17 15 12 13 20 15 15 16 15 15 16 18 19 18 18 18 18 18 17 17 18 19 18 18 18 18 18 18 18 17 17 17 16 16 16 15 14 14 13 13 13 12 12 12 12 11 10 19 20 22 19 20 16 16 13 15 15 15 15 15 16 17 19 20 20 18 18
15 13 14 17 21 22 20 16 18 16 20 15 17 21 13 12 15 18 12 14 11 12 13 10 13 15 18 19 15 16 17 12 13 11 20 19 17 17 15 15 17 19 20 19 21 20 19 18 17 17 17 18 18 18 18 18 18 18 18 17 16 16 15 15 15 14 14 13 13 12 12 12 13 12 11 11 14 20 22 23 23 20 16 12 13 14 14 14 14 14 17 18 19 19 19 18 17
15 14 13 18 21 26 18 16 21 19 17 13 14 15 12 15 19 17 16 15 11 14 11 11 12 14 15 16 20 18 10 10 12 15 16 17 17 16 15 15 18 20 19 20 20 19 20 18 18 16 16 17 17 17 17 18 18 18 18 17 16 16 15 15 14 14 14 13 12 12 12 12 11 11 11 11 14 17 20 18 18 20 15 13 12 12 11 12 13 15 16 17 19 18 18 17 16
19 19 17 17 18 20 23 19 18 15 15 13 15 15 14 15 19 16 18 17 11 10 13 13 12 17 18 19 22 20 13 12 12 17 14 17 17 15 15 18 20 20 18 20 19 20 19 18 16 15 15 16 16 17 17 18 18 17 17 16 15 15 15 14 14 14 13 13 13 12 12 12 11 10 10 11 12 15 18 18 18 18 17 16 14 13 11 10 12 14 15 17 18 18 17 17 16
11 22 19 22 20 19 23 20 17 13 17 13 12 17 18 18 16 16 19 15 15 12 15 10 13 11 17 11 14 12 14 17 23 22 20 18 16 15 16 19 21 20 18 19 19 20 18 17 14 13 15 16 17 17 17 17 17 17 16 15 15 15 15 14 14 13 13 13 12 11 11 11 11 10 10 11 11 13 16 19 18 20 20 17 17 13 12 11 13 14 16 17 17 18 18 17 16
17 24 14 22 21 16 16 17 15 11 16 14 16 18 16 21 19 19 20 16 13 11 11 13 11 18 19 17 19 15 18 19 21 20 20 18 16 15 18 18 21 20 18 19 19 20 20 17 14 13 15 16 16 16 16 16 17 16 15 15 15 16 15 13 13 13 13 13 12 11 11 11 11 11 11 11 11 13 15 17 19 20 21 20 16 13 11 12 14 15 15 16 17 17 17 18 17
20 23 21 26 17 19 16 17 16 15 13 11 18 20 20 20 17 15 17 17 14 10 13 12 12 17 20 20 23 16 17 18 21 21 19 17 17 17 18 19 19 19 18 19 18 18 20 18 17 14 13 14 15 15 15 15 15 14 14 15 14 14 14 13 13 13 13 12 11 10 11 11 10 11 11 11 11 12 15 18 18 17 16 15 16 14 12 15 15 15 15 16 16 16 16 17 16
26 27 18 23 18 19 18 16 15 16 14 14 19 18 16 15 14 16 15 13 11 11 15 11 20 22 19 20 21 14 16 18 22 23 18 16 16 19 20 18 18 17 19 16 16 17 19 19 19 17 16 16 15 14 13 14 15 15 14 14 15 14 13 13 13 12 12 11 11 11 11 11 11 11 11 11 12 11 13 16 18 20 19 17 14 14 16 16 16 15 15 16 15 15 14 15 15
25 25 23 23 20 18 15 15 14 16 17 15 15 11 11 12 10 12 12 15 13 14 15 12 16 21 20 22 18 17 16 17 22 22 19 17 19 17 18 18 17 16 17 17 16 16 17 18 17 17 17 16 15 14 14 14 15 14 14 14 14 13 13 13 13 13 14 13 12 11 11 10 11 11 11 11 11 11 13 15 16 17 17 16 14 15 17 16 17 16 15 15 15 14 13 13 12
26 22 23 22 17 16 15 14 13 14 16 13 15 15 10 8 9 11 11 13 16 17 18 16 19 12 18 18 19 17 18 17 19 22 20 19 18 19 17 18 17 16 16 15 16 16 15 16 17 16 15 16 14 14 14 14 14 14 14 14 13 13 14 13 13 14 12 12 11 11 11 10 9 11 11 11 11 11 12 14 15 16 17 17 15 16 16 17 16 16 15 15 14 13 13 12 11
28 22 21 21 11 13 16 12 14 15 16 16 13 10 11 10 11 10 15 17 15 17 18 14 17 23 24 23 18 18 19 18 20 20 21 19 19 19 18 18 16 16 14 16 16 15 14 14 14 15 15 15 16 16 14 15 14 15 15 14 14 13 13 13 12 12 12 11 12 11 11 10 10 10 10 11 11 11 11 13 14 15 15 15 15 15 16 16 16 16 15 14 13 12 12 11 10
24 20 20 18 18 15 13 17 14 13 19 16 17 13 15 16 12 13 18 17 21 19 21 21 18 15 17 19 20 19 21 20 20 21 21 20 20 21 18 18 17 15 15 15 14 15 13 13 14 14 13 15 14 14 14 17 15 15 15 14 14 14 13 13 13 12 12 12 14 11 11 10 11 10 10 11 11 10 12 12 13 14 14 14 15 15 15 15 15 15 14 13 12 12 11 10 10
20 25 21 20 19 18 23 15 13 14 22 13 15 13 15 15 11 12 15 17 23 17 14 22 21 19 20 15 24 23 22 22 20 20 21 22 21 19 19 16 16 15 14 14 13 12 12 13 13 13 13 13 13 13 13 15 14 15 14 14 14 14 13 13 13 13 13 14 14 11 11 12 12 11 10 12 9 10 9 10 12 13 13 14 13 14 14 14 15 14 13 13 12 12 12 12 9
15 23 21 20 19 18 21 17 14 21 17 14 13 13 12 18 16 17 11 14 21 22 24 23 19 14 19 26 28 27 24 23 21 21 20 20 21 19 16 17 18 16 14 13 12 12 11 12 12 13 11 11 12 13 12 13 16 14 14 13 13 12 12 13 13 14 13 13 15 13 11 10 11 11 12 12 11 12 10 10 10 12 12 12 12 12 13 13 14 13 13 15 15 14 13 10 7
22 26 22 20 19 16 18 15 17 15 14 14 14 12 14 15 13 15 14 21 25 24 26 24 24 24 24 29 26 25 25 24 22 22 21 19 18 19 17 16 16 16 15 15 12 11 11 11 12 11 13 11 12 13 13 16 14 11 13 14 13 13 12 12 13 13 11 14 12 12 11 12 13 13 12 7 10 14 14 9 10 11 12 13 12 12 11 13 13 13 14 14 13 11 10 18 13
26 21 19 19 15 17 12 13 12 13 16 10 12 10 11 18 11 14 13 24 20 25 24 24 29 27 25 25 25 25 24 23 21 22 23 18 17 17 15 16 14 14 14 13 13 10 10 12 11 12 12 12 12 12 12 13 13 13 12 13 14 11 13 14 12 12 11 12 12 11 10 10 10 11 12 9 10 9 12 8 9 10 12 13 12 12 12 12 11 11 11 11 9 9 17 15 14
14 18 19 21 13 15 11 11 13 14 14 11 15 13 11 15 13 12 19 20 19 21 20 20 27 24 25 25 24 23 23 22 21 21 20 17 16 17 16 14 15 14 13 13 13 10 11 11 11 11 11 11 11 12 12 12 11 11 11 11 12 15 12 13 12 12 11 10 12 10 10 11 10 10 9 11 10 11 13 11 12 12 12 12 12 12 11 10 9 8 7 8 9 12 16 13 15
21 21 17 20 14 12 14 12 16 13 13 15 13 13 19 28 26 25 20 18 21 20 17 19 24 26 26 27 24 21 21 19 19 18 17 16 15 16 16 15 15 15 15 14 13 12 11 11 11 11 10 9 10 11 11 10 10 10 10 10 11 12 12 11 11 11 10 10 10 10 10 10 10 10 10 10 9 11 11 12 14 14 14 16 13 15 16 16 16 17 16 17 16 15 12 11 11
19 17 18 14 11 11 15 12 11 12 9 11 16 20 25 21 24 27 24 22 24 24 21 23 25 28 30 25 23 22 22 21 18 17 19 18 16 15 15 15 14 15 14 15 13 12 12 12 12 11 10 10 10 10 10 11 10 10 9 10 11 11 12 10 10 9 9 8 7 8 9 9 9 10 9 10 10 10 11 11 10 10 10 12 19 19 19 16 16 13 14 16 14 13 11 11 11
15 17 13 10 12 12 14 12 10 10 11 14 24 21 20 23 27 28 30 29 24 24 23 27 27 29 29 26 24 22 19 18 17 19 19 16 20 23 24 25 22 21 19 17 16 16 12 10 10 10 11 10 10 10 10 9 9 9 9 11 10 10 9 10 9 8 8 9 8 8 9 9 9 9 9 10 10 10 10 9 9 9 9 9 9 9 14 20 17 13 12 12 12 12 13 13 13
13 19 13 16 10 12 15 15 10 10 16 26 25 21 22 21 30 29 33 25 25 25 25 28 29 27 27 28 21 21 19 17 20 22 25 24 22 22 22 21 19 16 16 13 12 12 10 10 10 11 11 11 11 10 10 9 9 10 10 10 9 12 9 9 8 9 8 8 9 8 8 9 9 10 9 9 9 9 10 9 9 9 8 8 9 9 9 9 10 9 9 10 13 13 14 13 13
15 18 12 13 10 15 14 15 15 16 22 24 23 28 29 32 30 31 30 24 24 25 25 28 26 27 26 24 22 20 19 18 22 22 21 22 19 19 20 18 15 17 15 12 11 9 8 9 9 10 10 11 10 9 10 9 9 10 9 9 10 9 8 9 10 9 9 8 8 10 9 8 9 9 9 9 9 9 9 9 9 9 8 9 8 9 9 8 9 10 10 11 11 12 12 12 13
15 19 17 17 18 18 20 19 20 20 26 24 29 30 26 21 31 37 26 24 23 24 26 26 24 25 24 23 22 19 19 19 18 18 18 17 17 18 17 15 13 18 14 10 9 10 7 8 8 10 9 9 9 9 9 8 8 9 8 9 9 8 8 9 8 8 8 8 8 10 11 10 9 9 9 8 9 10 9 9 9 8 9 8 8 8 9 9 8 9 11 12 12 12 14 11 12
15 17 17 21 22 22 21 21 22 22 23 23 31 30 29 30 26 27 26 21 23 29 29 26 24 23 21 22 21 19 19 18 18 18 16 17 19 18 16 14 14 12 14 10 9 9 9 7 9 8 8 9 8 9 9 9 7 8 8 8 8 8 8 8 8 8 8 9 10 9 9 8 7 7 8 8 8 9 8 8 8 8 9 9 9 8 8 9 10 10 9 10 10 11 12 11 15
18 20 19 19 21 31 28 22 21 19 25 24 32 32 32 28 31 26 22 21 26 31 30 29 26 24 25 22 21 19 19 19 18 16 16 17 20 18 14 13 12 15 13 12 12 9 9 9 8 9 8 9 8 9 8 8 8 8 8 7 8 8 8 8 8 8 9 10 9 8 8 8 7 8 7 7 8 8 9 8 8 7 8 8 8 8 8 8 9 10 12 10 11 12 12 12 12
18 13 20 19 25 35 31 23 19 16 19 16 17 29 36 34 25 20 20 23 28 31 31 29 27 25 23 22 21 19 20 21 18 17 16 17 18 15 13 12 14 13 11 9 9 8 9 9 8 9 9 8 9 9 9 8 8 8 8 8 9 8 8 9 8 8 9 8 8 9 9 8 7 7 8 8 7 7 8 8 8 9 8 8 7 8 8 8 9 9 10 10 11 12 12 11 12
16 15 15 18 20 27 30 21 22 17 18 16 14 20 26 31 25 23 17 24 28 31 31 28 27 25 25 22 22 21 21 20 18 19 17 16 16 15 13 14 14 10 10 9 8 10 9 8 9 9 9 9 9 9 8 8 8 8 8 9 9 8 8 8 8 8 7 8 8 8 9 9 9 8 8 7 7 8 8 7 7 8 8 8 8 9 9 9 9 9 9 11 9 12 12 11 12
18 13 17 16 22 22 26 24 21 17 22 18 18 22 23 28 30 25 19 24 29 31 28 27 26 24 24 24 24 22 21 20 19 18 17 16 16 15 15 19 19 17 12 11 11 10 9 9 9 8 8 8 8 9 8 8 8 8 8 8 9 8 7 7 8 8 8 8 8 8 9 9 9 9 9 9 8 8 8 7 7 7 7 8 9 8 9 9 9 9 9 11 9 11 12 11 12
14 21 17 17 21 20 27 28 25 21 29 28 30 31 21 22 29 24 19 26 30 32 27 26 26 24 25 24 23 22 22 21 20 20 19 18 15 15 17 19 18 15 15 13 10 9 10 9 9 9 8 8 9 9 9 9 9 9 9 8 8 8 7 8 8 9 9 8 8 9 10 9 9 10 10 10 9 9 9 7 7 8 7 7 7 7 8 8 8 9 8 10 11 11 11 12 11
16 17 12 14 19 18 18 29 25 19 31 37 23 30 22 18 26 21 23 30 30 30 29 28 25 24 24 23 22 22 23 22 23 24 22 18 17 15 14 14 17 14 12 14 12 10 10 10 10 10 10 9 8 8 9 9 9 9 9 9 9 8 8 8 8 8 7 8 9 10 10 10 10 10 9 9 9 8 9 9 8 8 8 7 8 7 8 7 7 8 8 8 10 11 11 11 12
15 11 16 12 15 23 24 22 30 31 31 34 30 36 22 19 21 26 26 31 30 29 26 25 27 25 24 24 23 22 23 23 22 20 19 17 17 17 17 15 14 12 11 12 12 11 11 11 10 10 10 10 10 10 10 10 10 10 9 9 8 8 8 8 8 9 8 9 8 11 10 10 10 10 9 8 7 7 7 8 7 7 7 7 7 8 7 7 7 8 8 8 8 10 11 11 11
11 14 18 18 19 19 19 19 20 33 30 35 31 33 25 24 24 25 21 25 28 26 26 27 26 24 24 24 24 23 24 23 21 20 18 18 17 15 17 14 12 13 16 14 12 12 12 12 11 11 11 11 10 11 10 9 9 9 8 8 8 8 7 7 7 8 8 8 9 10 10 9 10 9 9 8 8 7 7 6 7 7 7 8 8 10 8 7 8 8 9 8 9 9 9 9 11
13 14 16 19 23 23 28 27 23 31 31 34 30 29 27 27 25 22 22 21 27 26 25 26 26 26 25 24 24 22 23 24 22 20 18 17 16 16 14 14 14 15 16 16 16 14 14 12 11 11 12 12 10 10 10 11 12 11 11 8 8 7 8 7 7 7 7 7 9 9 9 9 9 9 9 9 8 8 7 6 6 6 7 8 8 9 8 8 9 9 9 10 9 10 9 9 10
17 16 18 21 28 27 26 24 26 28 37 31 29 29 26 24 24 20 17 21 25 25 24 24 23 24 24 24 24 24 23 23 19 19 18 18 17 17 15 16 16 15 16 17 17 16 15 16 14 14 14 12 12 12 11 11 13 11 11 11 10 9 10 8 7 7 8 8 8 9 8 8 8 8 8 8 8 8 8 6 8 7 7 8 9 9 8 8 8 9 10 10 10 11 10 9 10
17 16 18 23 19 20 13 14 12 16 32 28 27 33 30 26 24 21 21 27 24 20 22 22 22 23 23 22 22 23 24 22 20 20 20 19 21 20 20 20 18 19 19 18 19 19 18 16 16 16 14 15 13 13 12 10 9 11 12 13 14 12 12 11 10 8 8 7 7 8 9 10 10 9 9 9 8 9 9 8 8 8 8 7 7 8 8 8 8 8 9 11 9 10 10 10 10
10 15 18 21 22 27 26 31 27 27 36 30 30 35 30 27 26 26 26 25 23 21 19 18 20 22 21 20 19 21 21 21 20 20 20 22 22 23 22 21 20 18 17 18 18 18 18 18 17 16 15 14 14 14 14 13 11 10 11 10 12 14 9 10 11 10 9 9 7 8 9 9 11 11 11 11 10 10 9 9 9 8 9 8 9 8 8 9 9 9 9 12 10 8 10 8 9
13 18 20 19 26 22 26 21 18 17 26 31 34 36 29 25 27 28 25 25 25 23 22 21 20 22 21 19 17 18 19 23 22 20 19 20 22 23 23 23 22 20 20 19 19 17 16 18 17 16 14 13 13 13 12 12 12 12 12 12 11 12 13 10 9 9 9 9 10 9 10 9 11 11 11 12 11 10 10 10 9 10 8 9 10 11 10 11 10 11 10 10 10 13 12 9 8
15 15 20 23 18 18 24 31 34 34 33 32 34 37 31 25 25 26 23 22 25 25 23 24 22 21 20 17 16 16 19 20 22 23 24 24 26 23 22 22 23 24 23 22 20 19 16 15 15 16 15 15 14 14 14 14 12 12 12 12 12 12 11 10 11 12 11 10 11 11 12 11 12 13 11 12 12 11 11 11 11 10 10 9 10 12 12 11 11 10 10 10 10 11 12 9 9
18 19 20 16 21 28 30 33 29 28 29 21 13 24 23 18 21 23 21 23 26 23 24 22 21 20 19 18 18 20 21 22 22 22 22 21 22 21 22 23 24 20 23 21 20 19 18 16 15 14 15 16 18 17 19 17 15 13 13 13 13 13 14 13 15 16 16 14 15 11 12 13 13 13 14 12 13 13 12 13 12 13 11 12 12 12 11 10 11 11 11 11 11 10 12 11 12
16 18 19 20 25 24 20 19 17 21 20 20 17 23 19 15 19 17 20 23 24 22 22 21 20 20 20 20 20 21 21 21 21 21 22 23 22 21 22 23 22 21 20 19 19 17 18 17 16 15 15 17 16 17 18 18 16 14 14 15 17 17 14 12 10 11 12 13 12 12 13 11 13 13 14 13 13 13 13 13 13 13 13 12 12 12 11 12 13 14 10 11 11 9 9 13 12
22 20 25 24 27 25 17 18 20 23 18 24 26 25 32 22 16 14 17 20 20 20 20 19 20 19 19 19 20 19 21 20 20 21 21 21 21 20 20 21 21 21 17 18 17 18 19 18 17 17 17 17 17 18 16 16 17 16 15 14 15 19 21 17 12 12 12 13 13 14 14 12 13 13 13 14 14 15 14 14 14 14 14 13 13 14 13 12 13 10 10 10 10 10 11 12 11
22 22 27 26 25 22 21 20 22 22 19 23 21 19 25 19 17 12 14 20 17 18 17 17 17 17 18 18 20 19 19 20 19 20 20 20 19 19 18 19 18 17 18 17 17 18 17 17 17 18 18 16 17 16 15 15 16 16 17 18 18 14 15 17 17 18 20 15 13 14 13 13 13 13 14 15 15 15 15 15 15 15 14 14 14 14 13 13 12 11 12 12 12 11 10 10 11
18 23 23 21 18 18 16 18 16 15 16 18 17 16 23 21 15 17 12 16 16 16 16 15 15 16 17 17 17 18 18 17 19 19 18 18 18 17 17 17 17 17 17 16 16 16 17 17 17 17 18 17 17 16 16 17 16 16 15 15 17 18 17 16 16 17 18 21 23 16 14 13 14 13 14 15 15 17 16 15 16 16 15 15 15 14 13 13 13 14 14 13 11 11 10 10 12
24 23 22 20 17 16 16 12 14 16 16 18 13 12 12 18 16 16 17 15 14 15 14 14 13 15 16 15 16 17 17 17 18 18 18 17 17 17 17 17 16 15 15 14 15 16 16 17 16 18 18 17 16 16 16 16 16 15 16 16 16 17 18 18 18 17 16 17 18 21 21 17 15 15 14 14 15 17 16 16 16 15 15 14 16 15 14 15 15 14 14 14 13 12 12 11 11
19 21 21 21 18 17 14 15 15 14 14 14 11 10 15 17 17 15 16 15 13 12 14 13 13 15 15 14 16 16 16 16 17 17 17 15 15 16 16 16 16 15 15 18 16 16 16 17 18 18 17 17 16 16 15 16 16 16 15 14 15 16 16 17 17 18 20 19 17 17 16 18 19 19 13 15 15 15 16 17 17 17 17 15 16 16 15 15 15 15 15 14 14 14 13 12 12
15 17 16 16 15 19 15 19 13 11 14 15 12 11 12 17 15 18 17 15 14 10 13 14 13 14 13 15 14 15 14 14 15 16 15 15 16 16 15 15 15 16 16 15 16 16 16 17 17 18 18 17 17 16 16 15 15 15 16 15 15 16 16 16 16 17 17 19 19 20 19 18 17 20 18 18 17 17 17 18 19 19 18 17 17 18 16 16 15 15 15 15 15 15 16 14 14
15 18 17 15 12 9 9 12 13 17 16 13 12 11 13 15 14 13 15 13 13 13 12 12 14 13 12 14 13 14 13 14 15 16 16 16 17 16 15 14 15 15 15 16 15 15 15 16 17 17 18 17 17 16 17 16 15 15 14 15 15 15 15 15 15 16 16 15 16 17 18 21 22 21 21 21 21 21 20 19 19 21 22 20 19 19 18 17 17 18 17 16 16 16 15 15 15
17 14 15 15 14 14 10 13 12 11 17 17 10 16 14 17 16 16 13 13 13 13 12 13 12 12 11 12 12 13 13 13 15 16 16 15 15 14 14 14 14 14 14 14 14 15 15 15 16 17 18 18 17 17 16 17 17 16 16 16 15 16 16 15 16 15 15 16 17 18 19 19 20 20 23 23 23 23 22 22 21 21 22 22 21 20 21 20 19 20 19 18 17 16 16 16 16
10 11 15 14 14 14 13 17 13 16 19 17 15 10 10 14 13 11 12 14 14 13 12 11 11 10 11 10 11 12 13 14 14 13 13 13 13 12 12 13 13 14 13 14 15 14 15 15 15 16 17 18 18 17 16 17 17 17 16 16 16 15 15 16 16 16 17 15 16 16 17 18 20 21 22 22 20 21 24 24 23 23 23 23 23 23 23 23 21 21 21 20 19 18 17 17 17
19 19 14 19 14 18 17 8 14 9 13 13 8 14 14 13 16 15 15 17 16 14 14 13 11 11 9 10 11 12 12 13 11 13 14 12 13 12 12 12 13 14 14 14 13 13 13 14 15 15 16 17 18 17 17 16 16 16 16 16 16 16 16 16 17 16 17 16 16 15 16 16 17 18 19 19 20 19 22 23 25 24 23 23 25 23 24 24 22 23 24 22 22 21 18 19 18
16 16 17 13 14 12 15 11 10 15 12 11 14 12 15 17 16 21 18 20 18 17 15 14 11 12 11 12 10 11 12 11 10 10 11 12 13 13 13 12 12 12 12 13 14 12 12 13 14 14 15 16 16 16 16 16 16 15 15 16 17 16 17 16 17 17 18 17 16 16 16 17 17 18 18 17 18 19 19 21 23 24 25 24 24 24 24 24 23 24 24 24 23 21 21 18 19
20 22 14 16 9 12 13 17 10 11 9 12 14 10 14 20 15 22 21 22 19 18 16 15 15 14 13 12 12 10 9 9 8 9 11 11 12 11 11 11 12 12 12 14 14 13 15 13 15 14 14 14 14 15 15 15 15 15 16 16 16 16 16 17 17 17 17 17 19 18 18 18 18 18 18 18 18 18 19 19 19 22 23 24 23 23 24 25 25 24 24 24 23 22 23 21 20
15 14 12 9 16 16 15 10 13 17 10 9 10 13 12 21 17 20 22 22 20 18 17 17 16 15 15 13 13 11 11 9 9 8 9 11 10 9 10 10 12 12 13 14 13 14 14 13 14 15 14 14 14 14 14 14 15 15 16 16 15 17 17 16 16 16 17 17 18 19 19 18 20 20 19 20 20 20 19 20 21 21 22 21 23 23 25 25 24 24 25 26 25 23 25 24 23
15 17 14 12 14 11 18 13 14 13 15 9 12 13 15 15 13 18 20 21 19 18 19 17 16 15 14 13 12 10 10 10 9 9 9 8 8 8 8 8 11 11 12 12 13 13 12 13 14 14 14 13 14 14 14 15 14 15 15 15 16 15 15 16 15 16 16 16 17 17 17 18 19 19 20 20 20 21 21 21 21 22 22 21 20 20 20 22 22 25 27 27 24 25 27 26 23
13 13 12 12 12 15 14 10 11 10 14 11 9 10 15 16 11 14 19 20 20 18 16 16 16 15 14 13 11 10 11 11 10 11 9 9 8 7 8 9 9 10 12 13 12 12 13 14 15 14 14 15 14 15 16 16 15 16 15 16 16 15 16 17 16 16 15 17 16 17 17 17 17 19 19 21 21 21 21 21 21 22 21 20 22 25 23 22 31 30 31 30 29 24 23 23 22
Wind_Speed
7 5 3 5 5 6 6 6 9 5 5 7 4 7 9 3 1 5 3 4 4 7 6 2 2 6 2 4 1 11 8 5 7 4 2 2 3 5 6 6 5 6 8 9 12 12 13 16 18 18 17 17 15 13 12 10 9 10 10 11 11 11 11 11 11 11 10 10 9 9 9 9 8 8 8 8 8 8 8 10 10 7 8 10 12 13 13 12 12 12 12 12 11 12 12 12 12
4 3 4 5 5 5 6 1 6 5 5 4 4 0 5 3 6 4 4 6 7 8 5 4 2 2 5 4 4 5 8 11 10 9 7 7 6 8 8 6 5 7 8 9 9 10 11 13 15 16 17 17 16 15 13 12 10 10 10 10 10 10 11 11 11 10 10 9 9 9 9 8 8 7 7 7 7 7 12 12 7 8 8 7 9 9 12 12 12 12 12 12 12 12 13 12 12
4 5 5 5 6 8 2 6 8 5 5 6 6 3 5 6 6 5 4 6 8 8 4 2 1 2 3 9 6 6 3 6 7 8 7 7 8 6 7 6 6 6 10 7 7 8 10 10 13 13 15 16 16 15 14 13 11 11 10 10 10 10 10 10 10 10 9 9 8 8 8 8 8 7 7 6 6 8 11 9 8 8 8 8 9 8 9 10 11 11 12 12 12 12 12 12 11
6 5 6 5 6 3 8 5 7 5 5 4 0 5 5 3 4 1 4 5 6 7 2 1 3 4 7 2 6 7 7 6 5 5 6 4 5 7 7 5 5 6 9 6 6 8 10 12 12 13 14 14 15 15 14 13 12 11 11 10 10 10 10 10 10 10 9 9 8 8 8 8 8 7 7 6 6 14 10 6 9 10 8 8 7 7 7 9 9 10 11 12 12 12 11 11 10
6 4 5 6 7 7 6 4 6 4 7 4 4 9 5 3 2 3 3 4 3 4 4 2 3 6 8 9 5 2 5 5 6 4 7 8 8 7 7 5 5 7 10 7 6 8 11 13 10 10 12 13 13 13 13 13 12 11 10 10 10 10 10 10 10 10 10 9 9 8 8 8 8 8 7 8 11 13 10 7 7 8 8 8 8 7 5 4 9 9 11 11 12 12 11 11 10
6 5 4 6 5 7 4 4 7 7 6 4 2 5 3 3 5 5 5 5 3 4 2 4 2 4 3 6 7 5 1 0 5 7 6 7 8 8 8 5 6 7 10 7 8 7 9 12 9 10 11 12 13 13 13 13 12 11 10 10 10 10 10 9 9 9 9 9 9 9 9 9 9 8 7 8 11 11 9 6 5 7 9 9 7 8 6 7 9 8 10 12 12 12 11 11 9
6 7 5 5 4 5 8 7 6 5 4 1 4 2 3 2 4 5 6 6 3 3 3 4 4 7 6 6 10 8 5 5 3 6 6 8 8 8 8 7 6 9 10 10 9 8 11 10 10 9 10 11 11 12 12 13 12 10 10 10 10 10 9 9 9 9 9 9 9 9 8 9 8 8 8 8 9 9 8 7 6 5 8 6 5 5 6 5 9 9 10 12 12 12 12 11 9
3 8 5 8 5 5 8 7 6 3 5 4 3 5 5 6 5 6 7 6 3 3 6 1 5 3 8 3 4 4 7 8 12 14 11 9 9 8 8 7 7 9 9 10 8 10 13 11 10 8 10 10 10 9 11 12 12 10 10 10 10 10 9 8 9 9 9 9 9 9 8 8 8 8 8 8 8 9 9 9 8 7 6 6 6 7 7 7 7 9 10 12 11 12 11 10 10
6 9 3 7 7 4 5 5 4 2 4 3 4 6 8 8 7 9 9 5 5 4 3 4 3 8 7 8 8 7 7 11 12 12 12 10 9 8 6 7 7 8 9 10 8 10 11 11 11 10 10 10 10 10 10 11 10 10 9 9 10 9 8 8 8 8 9 9 9 8 8 8 8 8 8 8 8 8 6 7 9 8 7 8 6 7 7 8 7 9 11 11 11 11 10 9 7
6 8 7 7 5 7 6 5 5 3 2 1 4 6 7 7 8 6 7 7 3 3 5 3 2 4 9 10 10 7 6 10 11 11 10 10 9 8 8 7 8 9 9 8 8 9 10 13 12 11 9 9 9 9 9 9 9 10 9 9 9 8 8 8 8 8 8 9 9 8 8 8 8 8 8 8 7 8 7 7 9 10 9 9 8 7 7 10 9 10 11 12 11 11 10 9 7
8 8 6 8 6 6 6 5 4 6 5 4 6 5 5 5 6 7 6 5 3 2 5 4 9 12 9 10 8 6 4 8 10 13 10 9 10 10 9 7 7 8 9 6 7 8 9 11 14 11 10 9 8 7 8 8 8 9 9 9 9 8 8 8 8 8 8 9 9 8 8 8 8 8 8 7 7 8 8 8 9 10 10 9 8 8 10 10 10 10 11 12 11 11 10 9 8
9 9 7 8 7 6 4 3 4 2 2 4 4 4 2 3 3 4 4 6 5 6 6 3 5 8 9 9 6 7 7 9 11 13 11 10 10 9 9 7 7 7 8 8 8 9 9 9 8 11 9 8 8 8 7 8 9 8 8 8 8 8 8 8 8 8 8 9 9 9 8 8 7 8 8 8 7 8 9 8 9 10 9 9 10 11 10 10 10 10 11 11 11 10 10 9 8
9 8 9 8 5 4 5 3 4 1 4 4 2 3 1 2 1 1 3 4 7 8 8 8 11 5 6 7 7 8 8 9 11 12 12 10 10 9 8 9 8 8 8 8 8 8 9 8 7 7 8 8 8 8 8 8 9 9 8 9 8 9 8 8 8 7 7 8 8 9 8 7 7 7 7 8 8 7 8 8 8 9 10 9 11 11 10 10 10 11 11 11 10 10 9 9 8
10 7 7 7 2 3 5 2 4 5 4 5 4 3 3 3 3 2 5 8 6 8 8 6 7 12 13 9 7 7 7 10 12 12 10 10 9 10 10 9 9 8 8 8 8 7 6 7 6 7 8 6 6 7 7 8 8 8 9 8 8 8 8 7 7 6 8 8 8 9 8 6 5 5 7 8 8 8 7 7 8 8 9 9 11 11 11 11 11 11 11 10 9 9 9 8 7
9 6 6 5 6 5 4 5 4 4 7 5 7 4 7 7 5 5 9 6 11 10 10 11 5 4 4 7 7 8 10 12 12 12 12 11 11 11 10 9 9 9 8 7 7 6 5 6 6 5 7 6 3 1 4 6 7 6 9 8 8 8 8 6 5 6 7 7 8 8 6 5 4 3 2 6 8 7 7 8 7 8 8 9 11 11 11 11 11 11 10 9 9 9 8 7 5
6 7 6 5 7 7 8 4 4 4 8 4 7 5 7 7 3 5 6 6 10 8 6 8 9 6 10 6 11 13 14 13 12 12 12 13 12 11 10 9 9 9 7 7 7 5 5 5 4 4 3 2 5 4 2 5 5 2 6 8 7 7 6 5 5 6 7 6 7 7 6 4 3 3 2 5 6 7 5 4 7 7 8 9 10 10 11 11 11 11 9 9 9 9 8 6 3
5 8 7 6 7 7 8 5 4 7 7 6 5 1 4 8 7 8 4 6 11 12 13 10 8 5 9 9 15 16 15 14 13 12 12 11 9 8 7 7 8 7 6 6 6 5 4 4 4 3 3 2 4 5 3 1 6 5 3 7 7 6 6 4 5 6 5 5 5 6 5 2 2 2 2 2 7 2 6 7 7 7 8 9 8 9 10 11 11 10 10 9 8 7 6 5 5
8 8 7 7 7 5 8 5 4 6 5 6 7 4 6 7 6 6 6 12 15 14 15 12 14 14 13 15 16 15 15 14 13 12 9 9 8 7 6 6 6 6 6 6 5 5 3 3 3 2 3 2 2 4 5 7 2 3 7 6 5 6 5 5 5 2 2 3 5 4 2 5 4 1 3 1 2 7 7 6 7 7 8 9 8 8 8 9 10 10 10 9 7 6 8 7 6
10 7 6 6 4 6 2 4 3 2 7 3 4 2 3 9 1 3 1 13 10 13 9 12 15 14 14 15 16 15 13 11 11 9 9 8 6 8 6 5 6 6 5 4 5 4 3 3 3 3 3 3 2 1 2 2 5 5 3 6 2 5 2 4 3 3 3 3 1 1 1 1 2 4 4 2 2 3 5 6 6 7 8 9 9 8 9 8 7 9 9 7 5 6 8 6 5
5 6 7 8 3 7 1 1 1 1 2 3 8 1 4 8 6 2 10 8 11 9 7 7 12 15 14 14 13 13 11 10 8 7 9 9 7 6 6 6 6 6 5 4 5 4 3 3 3 3 3 3 2 3 2 1 1 1 1 1 4 6 5 3 2 1 1 2 2 1 1 1 1 2 4 4 4 4 6 5 6 8 8 9 7 5 8 7 5 5 5 4 7 7 6 5 5
8 8 5 8 5 2 5 3 2 3 2 1 7 3 11 16 11 9 6 9 10 8 4 7 10 14 14 14 12 10 9 8 7 8 8 9 8 7 8 7 6 6 6 6 5 5 4 4 3 5 4 3 3 2 3 2 2 1 2 1 1 2 1 1 2 1 2 1 1 1 1 0 1 2 2 2 2 2 3 4 5 5 5 7 6 5 5 5 8 7 6 7 6 6 4 4 4
7 7 8 6 2 1 5 4 5 3 3 3 9 11 12 6 12 13 12 10 7 8 9 11 12 14 15 12 9 8 11 11 7 9 12 10 9 8 8 7 7 7 6 6 5 5 6 5 5 4 4 4 4 3 2 2 1 2 1 2 1 1 1 1 1 1 2 1 1 0 0 1 1 1 1 1 2 2 2 1 1 1 2 5 9 6 3 4 5 5 6 6 5 5 4 3 4
4 6 5 3 4 3 6 3 4 4 2 7 13 10 6 12 12 13 18 16 13 13 14 15 17 17 14 10 7 7 9 10 10 11 9 9 13 15 13 13 11 9 8 8 8 8 5 5 5 4 5 4 3 3 3 2 2 2 1 3 3 2 0 0 1 1 2 2 2 1 1 1 1 1 1 1 1 2 2 1 0 1 1 1 1 2 7 9 8 5 4 5 4 4 4 5 5
4 7 5 6 3 5 4 4 1 3 8 15 12 8 9 12 17 15 19 14 13 15 14 18 18 15 11 9 6 8 11 10 12 13 16 13 11 9 5 6 5 3 5 4 2 2 3 5 4 3 4 3 3 3 2 2 3 2 3 1 2 4 2 2 3 3 2 1 2 2 1 3 1 1 1 1 1 1 1 0 0 1 1 0 1 1 2 1 0 1 2 3 4 5 5 5 5
5 7 5 5 3 6 6 7 8 9 14 13 14 14 16 18 14 18 17 15 13 15 16 16 17 17 15 12 10 11 11 11 13 11 8 7 8 7 5 4 4 4 6 3 3 2 2 3 3 3 3 3 2 2 3 2 2 2 2 3 3 2 2 2 3 1 1 2 1 3 3 2 2 1 1 1 0 0 0 1 0 0 1 1 0 0 0 1 2 2 2 3 3 3 4 4 5
6 9 7 8 9 10 8 11 11 12 11 11 15 15 11 11 20 20 14 13 13 13 15 15 14 15 15 14 13 11 11 11 10 8 5 5 5 6 5 4 4 4 3 1 3 2 1 3 3 4 3 2 3 1 2 2 2 1 2 3 1 0 2 2 1 1 1 1 1 2 3 2 2 2 1 1 0 1 0 1 0 1 1 1 0 0 1 1 1 1 3 4 3 4 5 3 3
6 8 9 11 12 11 11 12 13 13 11 14 17 17 17 14 9 11 11 12 11 12 14 14 15 14 12 12 11 10 10 10 10 8 7 5 6 6 4 3 5 6 2 1 3 4 4 2 4 3 3 3 2 3 3 3 2 2 2 2 2 1 2 1 1 1 1 2 2 2 2 1 1 1 1 1 1 1 0 1 0 0 0 1 1 1 1 2 2 2 2 2 2 3 4 3 5
9 9 8 10 12 14 11 10 9 9 12 13 19 19 18 16 16 11 9 9 11 12 14 15 14 13 13 12 11 10 10 10 8 6 7 6 5 5 5 4 5 5 4 7 6 3 3 4 3 4 3 2 2 2 2 2 2 2 2 1 2 2 1 1 0 1 2 2 3 2 1 1 0 1 1 1 1 1 0 0 0 1 0 0 1 1 1 1 2 2 3 2 3 3 3 3 3
9 4 9 10 11 13 14 10 9 7 9 7 6 16 20 15 13 11 10 8 9 11 13 15 15 13 13 12 9 8 11 10 5 4 7 6 7 6 6 4 5 4 5 4 3 2 4 3 3 3 2 2 2 3 3 2 2 1 1 1 2 0 1 1 1 2 2 2 2 3 3 2 1 0 2 2 1 1 1 1 1 0 1 1 1 1 1 1 2 2 2 2 3 4 4 4 3
7 5 6 9 8 10 13 5 6 7 3 4 4 3 9 11 10 8 8 9 10 11 11 12 12 12 12 12 10 10 11 10 7 6 6 7 7 6 6 5 5 3 3 3 2 4 2 2 2 2 3 2 3 2 2 2 1 1 1 1 1 1 1 1 1 2 2 2 2 2 3 3 2 2 2 0 1 1 1 1 0 1 0 1 1 1 1 2 1 2 2 3 3 4 3 3 3
6 5 6 5 8 4 10 7 3 6 4 5 9 6 6 7 7 6 7 7 9 9 11 12 13 12 13 12 10 10 10 9 10 9 10 9 8 6 5 4 3 3 1 2 3 3 2 2 1 2 2 3 2 3 2 2 1 1 1 1 1 1 1 1 1 2 1 2 2 2 3 3 3 3 3 2 2 2 1 0 1 0 1 2 1 1 2 1 1 1 1 3 2 3 4 2 3
4 7 6 6 8 5 12 10 9 7 8 11 14 10 8 6 6 5 6 7 9 10 11 13 12 12 13 12 12 11 11 11 12 12 11 10 8 6 5 4 4 4 3 3 2 2 3 3 3 3 2 2 3 3 3 3 3 2 2 1 1 0 0 1 1 2 2 2 2 2 3 3 3 3 3 3 3 2 2 1 1 1 1 1 1 0 2 1 1 1 0 2 3 3 3 3 3
3 5 2 4 7 7 7 13 5 8 13 8 4 10 8 7 6 6 6 9 10 10 11 12 14 14 13 12 11 11 11 12 12 14 12 9 8 7 6 7 7 5 4 3 3 2 2 3 3 4 3 2 2 2 1 1 2 3 3 2 2 1 1 1 2 1 1 2 2 3 3 3 4 3 3 3 3 2 2 2 1 2 2 1 1 1 2 1 1 1 1 1 3 2 3 3 4
3 2 3 1 5 10 6 10 13 12 14 16 14 14 11 9 8 7 8 8 10 10 11 12 11 13 13 12 11 11 12 12 12 10 10 9 7 8 7 7 6 5 4 5 5 4 4 4 4 4 3 3 2 2 2 3 2 2 2 2 2 2 1 1 1 1 1 2 2 3 3 3 3 3 2 2 1 2 1 2 1 2 1 1 1 2 1 1 1 2 2 2 2 3 3 3 3
3 3 5 5 9 5 9 5 9 14 18 20 16 17 12 10 8 8 8 8 9 11 11 11 12 13 13 13 12 13 12 12 11 10 9 9 8 7 6 6 5 7 8 7 5 4 4 4 3 4 4 3 2 2 1 1 2 2 1 1 1 1 1 0 1 1 1 1 1 2 2 2 2 1 2 2 2 1 1 1 2 1 1 2 2 3 2 2 2 2 2 2 2 2 2 2 3
2 6 4 6 9 8 8 12 11 13 16 15 13 13 12 10 10 9 8 8 10 12 12 12 12 13 13 12 12 11 12 12 10 10 9 8 8 7 7 7 7 6 6 7 8 6 6 4 4 4 4 4 3 2 1 2 1 1 2 1 1 1 1 1 0 1 0 0 1 1 1 0 0 0 0 1 1 1 1 0 0 1 1 2 2 2 2 2 3 3 3 4 3 3 3 2 2
3 2 5 9 13 13 14 13 15 15 17 15 14 14 12 10 9 7 8 10 9 10 10 10 10 11 12 12 12 12 13 12 10 9 10 10 9 8 8 7 8 8 8 8 8 8 8 7 6 5 4 4 4 4 3 3 2 1 1 1 1 1 1 1 1 1 1 1 0 0 0 0 1 1 1 1 1 2 2 1 2 2 1 2 1 2 2 2 2 3 3 3 4 4 3 2 3
4 7 9 8 7 8 3 5 4 6 14 14 16 17 13 10 7 5 5 7 10 10 10 11 12 13 12 12 12 13 13 11 12 11 11 11 11 12 11 10 10 10 10 9 9 8 8 7 6 5 3 3 3 4 4 3 2 3 3 2 2 1 1 1 1 0 1 0 1 1 1 1 2 2 2 1 2 3 2 2 2 2 2 1 1 1 2 2 2 2 3 4 3 4 3 2 2
2 4 6 7 5 8 8 11 12 12 14 13 15 15 15 12 9 7 6 7 8 8 7 8 11 11 10 10 10 11 12 11 11 11 12 12 13 13 11 10 10 9 9 9 8 8 7 6 6 5 4 4 3 4 5 4 4 3 4 3 3 3 1 1 2 2 2 2 1 2 2 2 3 3 2 2 2 3 2 3 3 2 3 2 2 2 3 3 3 3 4 4 3 2 3 1 2
2 6 3 5 11 8 10 8 9 8 7 14 14 16 12 12 12 11 8 8 8 7 8 9 9 10 11 10 9 9 10 11 11 10 11 11 11 12 12 11 10 8 8 8 8 7 5 5 5 6 4 3 4 3 4 6 5 5 5 5 4 4 3 2 2 2 3 3 3 3 3 2 2 3 3 3 3 3 3 3 3 3 2 2 3 4 4 4 4 4 4 4 4 5 4 2 0
6 6 8 7 9 7 5 7 8 13 15 16 17 14 11 9 10 10 10 10 10 10 10 10 11 11 11 9 9 9 10 10 10 10 10 10 14 14 13 11 8 7 8 9 8 7 5 6 6 6 7 7 6 7 7 7 5 5 4 5 5 5 4 4 3 3 2 2 3 3 3 3 3 4 3 4 4 4 4 4 4 4 4 3 3 4 5 4 4 4 4 4 4 4 4 2 2
7 11 10 4 4 14 14 18 14 7 12 10 6 7 6 6 9 9 9 9 11 10 11 11 11 11 10 10 10 10 11 12 12 13 12 12 12 12 12 11 10 8 7 8 8 8 8 7 7 7 7 8 9 10 11 8 6 5 4 4 4 5 5 4 4 3 3 3 3 2 4 4 4 4 4 4 5 5 5 5 5 5 5 4 4 4 4 4 3 4 4 4 4 4 4 4 4
6 6 10 10 12 11 5 4 7 8 6 6 6 4 7 6 8 8 9 11 12 10 11 10 10 9 9 9 9 9 10 10 11 12 12 13 13 12 12 11 10 9 8 7 8 8 9 8 8 8 7 6 7 7 7 8 8 6 6 7 8 8 5 3 2 3 4 4 3 4 4 4 5 5 5 4 5 5 5 6 6 6 5 5 5 5 4 4 5 6 4 4 4 3 3 5 5
8 10 12 12 15 12 7 8 9 4 8 7 5 6 11 7 5 6 8 10 10 10 10 10 9 10 10 9 10 10 10 11 10 11 12 12 12 11 11 10 10 10 9 9 8 8 9 10 9 9 8 8 7 7 8 7 8 7 7 6 4 6 11 9 4 4 4 5 5 5 4 4 4 4 5 6 5 6 6 6 6 6 6 5 5 5 5 5 5 3 3 4 3 3 4 5 4
8 12 13 15 15 10 7 9 9 7 7 8 8 9 8 6 6 4 6 9 8 9 8 8 8 8 9 9 9 10 10 11 11 10 11 11 11 10 10 10 9 10 9 9 8 8 7 8 9 9 9 8 8 10 8 8 7 7 8 8 7 4 3 7 8 8 9 8 5 5 5 3 3 4 5 6 6 6 6 6 6 6 6 6 6 6 5 5 6 5 5 5 5 4 3 4 4
9 13 11 9 8 9 8 6 4 5 5 6 5 1 6 7 6 6 3 6 7 7 7 7 7 7 8 8 8 9 9 8 9 10 10 10 10 9 9 9 10 9 8 9 8 8 8 7 8 9 10 8 8 8 8 9 9 8 7 7 9 8 7 6 5 4 4 8 12 10 4 3 3 3 4 5 6 7 7 7 7 7 7 6 6 6 5 6 6 6 6 6 5 5 3 4 5
14 13 10 8 7 5 5 1 4 6 4 6 3 2 3 5 6 6 6 5 5 5 5 5 5 6 7 7 8 7 7 8 8 9 9 9 9 9 9 9 8 7 7 7 7 8 8 8 8 9 9 7 8 8 9 9 8 8 7 8 9 9 10 9 8 6 5 6 5 8 10 8 6 4 4 4 5 7 7 7 7 7 6 6 6 7 6 6 6 6 6 7 6 6 4 4 4
10 8 8 8 6 7 4 5 6 3 4 4 2 2 4 4 5 5 6 6 4 4 6 6 6 6 6 6 7 7 7 7 7 7 8 8 8 9 8 8 8 7 7 7 7 7 8 8 8 9 9 9 8 8 8 8 7 7 8 8 8 8 9 8 9 9 8 8 7 6 5 6 8 9 5 4 4 5 6 6 8 8 8 7 7 7 6 6 6 6 6 6 6 7 6 5 5
5 6 5 4 4 5 4 6 4 1 3 5 3 1 2 5 5 7 8 7 6 2 5 5 5 6 5 6 6 6 5 6 6 6 6 6 7 7 7 7 7 7 7 7 8 7 7 8 9 9 10 10 9 9 8 8 8 8 8 8 8 7 8 8 8 8 7 7 7 7 7 7 5 8 7 7 7 9 7 7 8 8 8 7 8 8 7 7 6 6 6 7 7 7 7 7 5
4 5 3 3 3 1 3 3 3 5 6 4 3 3 1 5 4 5 6 5 5 5 5 4 6 5 5 5 5 5 5 5 6 6 7 7 7 7 7 6 6 6 7 7 7 7 7 7 9 9 9 9 9 9 9 8 8 8 7 7 7 7 7 7 7 7 7 7 6 7 7 7 8 9 9 7 7 7 9 7 7 8 10 10 9 9 9 8 8 7 7 8 8 7 7 8 7
6 4 3 5 3 2 3 3 3 3 6 6 3 4 2 7 5 7 5 4 5 5 4 5 4 4 4 4 4 5 5 5 5 6 6 7 7 7 6 5 5 6 6 7 6 6 7 7 8 9 9 9 9 9 8 9 8 8 8 7 7 7 6 6 6 6 6 7 6 7 7 6 6 7 8 8 8 10 10 9 9 8 9 11 10 9 9 9 8 8 8 8 8 7 7 7 7
1 1 4 4 4 5 2 6 3 6 6 6 4 1 1 2 1 4 2 5 5 5 5 4 3 3 3 2 3 4 4 5 5 5 5 5 6 5 5 5 5 5 5 6 6 6 6 6 7 8 8 9 9 9 9 8 8 8 9 9 8 8 7 7 6 6 7 7 7 7 7 7 7 7 7 7 9 10 10 10 11 10 10 10 11 11 11 10 9 9 9 8 9 7 8 9 8
6 7 2 7 4 3 3 2 6 2 3 4 2 4 3 4 6 7 7 7 7 6 5 3 3 3 2 2 3 4 4 4 3 4 5 5 6 5 5 5 5 5 5 6 6 6 6 6 7 7 8 8 9 9 8 8 8 8 8 9 9 9 8 9 8 9 9 8 7 7 6 7 7 6 6 6 7 9 9 10 10 12 12 10 12 12 11 11 10 10 10 10 10 9 8 9 8
4 2 6 5 4 3 4 2 2 5 3 3 5 4 5 6 4 8 8 9 8 7 6 4 4 4 3 3 2 3 4 4 3 2 3 5 6 6 5 4 4 4 5 5 6 5 6 6 7 7 7 8 8 8 8 8 8 8 8 8 9 8 8 8 8 9 9 8 8 7 7 7 7 7 7 7 7 8 8 9 11 12 13 11 11 10 11 12 12 11 11 11 10 9 9 8 9
8 9 5 5 3 5 2 1 3 2 3 3 5 2 4 7 4 9 11 11 10 9 7 6 6 4 2 3 3 2 2 2 0 2 3 3 4 4 4 4 4 4 4 6 5 5 6 6 7 7 7 7 7 7 7 7 7 6 7 8 8 8 8 7 8 8 8 8 9 8 8 8 9 8 8 8 8 9 8 8 9 10 10 11 11 10 11 10 11 10 11 10 10 10 10 10 9
6 3 3 1 5 5 5 1 3 4 3 1 2 4 2 7 3 10 10 11 10 9 8 7 5 4 2 1 0 2 2 1 1 0 2 3 3 3 3 3 4 4 5 5 5 5 5 5 6 6 6 6 6 7 7 7 7 7 7 7 8 8 8 7 8 8 8 8 8 8 8 9 9 8 9 9 9 9 9 10 9 9 10 9 9 12 11 11 8 10 12 10 10 11 12 12 10
5 6 4 3 3 3 4 2 3 3 1 1 3 4 2 4 3 7 9 11 11 8 7 5 5 4 3 1 1 0 1 2 2 0 0 1 2 2 2 2 3 4 4 4 5 5 4 5 6 6 6 6 7 7 7 7 7 7 8 8 8 8 8 7 8 8 8 8 7 8 8 8 8 8 9 9 9 10 10 10 11 10 10 10 10 9 8 9 9 9 11 13 12 9 12 12 11
4 4 3 2 4 5 5 3 2 2 3 1 2 2 4 5 1 4 7 7 8 8 7 6 6 5 4 2 2 2 2 2 2 2 2 1 1 1 1 1 1 2 4 5 5 4 6 7 6 6 7 7 7 7 8 8 8 8 8 9 9 8 8 8 9 8 8 8 8 8 8 8 9 9 8 9 10 9 9 11 10 10 10 10 9 9 8 7 9 11 12 11 11 12 11 10 11
Wind_Direction
266 237 290 262 251 246 236 197 242 169 232 215 227 186 119 225 308 264 172 5 8 26 6 10 166 195 16 129 60 91 43 283 29 277 73 88 133 70 104 114 111 123 115 115 117 129 125 130 136 139 139 133 132 128 125 119 111 106 103 103 106 102 98 98 97 97 98 99 99 98 100 100 102 102 104 108 105 102 106 81 65 72 105 112 118 119 110 108 109 111 114 115 117 116 117 119 114
247 273 247 231 235 223 203 333 268 204 212 243 193 159 104 180 220 231 52 8 6 352 359 8 141 137 96 73 95 26 37 41 44 83 89 99 107 85 92 110 128 114 114 102 110 118 124 125 130 133 131 130 130 129 128 124 120 113 107 104 103 101 101 100 100 100 100 100 102 102 104 103 106 112 115 117 118 116 90 92 109 91 95 90 99 106 114 114 117 116 116 118 119 115 117 119 120
270 247 209 212 218 244 45 217 249 231 240 226 128 199 89 207 209 130 34 3 349 340 25 11 42 158 186 137 134 244 153 46 71 66 89 129 121 89 98 117 116 122 104 94 100 108 120 122 127 127 128 130 130 130 128 127 125 124 119 115 110 109 108 105 103 102 102 101 100 105 107 110 114 119 123 123 127 93 95 121 118 100 92 76 95 109 109 111 117 116 115 118 118 120 120 123 126
279 258 260 205 193 218 238 203 254 255 220 234 147 133 186 197 139 41 6 13 341 321 345 151 210 44 301 185 88 100 96 93 32 105 122 126 81 121 110 112 127 120 104 103 111 119 118 120 119 122 126 127 128 128 128 127 125 127 126 120 119 115 113 111 108 108 107 105 102 101 105 106 108 108 113 118 93 99 126 133 113 114 98 101 92 94 99 115 117 117 118 121 122 124 122 122 121
251 222 250 244 272 204 225 231 271 254 234 176 202 122 172 216 266 281 331 345 301 301 278 92 191 80 66 42 8 323 74 89 92 55 91 82 104 112 116 131 142 128 109 119 114 113 108 103 112 119 122 123 125 126 126 124 127 128 128 126 126 123 120 118 118 115 114 111 108 106 103 104 109 112 111 117 112 110 129 134 138 127 117 113 114 115 104 133 121 126 126 127 128 127 127 126 127
235 223 194 251 238 24 257 236 219 229 260 25 237 152 114 260 262 296 314 299 318 266 277 210 300 148 100 43 24 65 11 197 94 90 98 94 114 119 119 148 135 127 114 119 108 96 116 103 104 116 116 120 123 127 128 129 130 132 132 133 131 126 124 121 118 114 111 109 109 107 106 108 107 109 111 117 122 129 131 138 135 123 121 125 117 122 127 132 127 130 132 133 131 130 132 134 132
194 206 181 202 222 231 259 248 242 242 117 140 279 291 215 230 268 294 288 297 157 274 187 204 155 125 136 124 94 50 58 80 106 87 89 111 106 117 126 132 130 122 119 106 105 119 114 105 108 114 117 119 122 128 129 128 130 133 136 133 129 127 124 119 114 113 111 111 109 108 107 108 111 106 105 111 115 133 144 149 165 136 126 137 135 139 132 126 138 142 142 137 135 135 138 140 136
273 243 170 223 192 202 222 246 266 236 116 236 334 283 259 262 295 286 283 284 106 277 153 186 205 211 82 217 85 79 67 67 102 98 106 116 112 124 130 125 125 125 112 115 117 119 119 112 111 104 109 112 116 119 129 131 133 135 138 134 131 128 128 123 119 115 114 112 109 108 108 106 105 107 106 105 113 129 146 156 153 137 131 131 156 143 139 137 140 155 144 140 139 142 147 145 143
189 233 68 249 246 188 247 226 238 110 311 228 234 256 268 274 287 289 281 286 291 243 224 206 168 211 112 119 79 105 81 93 99 112 115 119 117 117 125 116 124 112 109 104 120 112 111 109 100 96 98 111 121 129 132 132 135 137 137 136 132 129 124 121 116 114 112 108 107 106 105 103 102 103 106 113 111 116 131 134 124 123 125 135 147 141 140 139 156 151 144 143 140 144 149 154 128
192 229 177 236 236 214 221 183 206 153 169 124 252 258 271 286 287 273 282 278 298 87 75 29 203 123 121 103 110 72 111 117 115 114 112 116 116 118 107 109 116 111 104 108 128 126 116 107 97 94 102 107 112 119 125 129 133 136 135 128 128 127 122 119 113 113 108 106 104 106 102 101 100 100 103 106 115 125 130 125 117 128 136 145 147 127 145 144 145 145 148 143 146 146 153 156 149
203 190 302 217 207 230 190 164 182 144 180 200 244 248 305 319 287 278 267 273 44 126 116 122 114 118 117 91 80 100 139 147 128 112 114 110 117 114 107 105 105 110 109 128 114 114 117 107 99 96 92 88 98 113 121 119 124 124 125 127 126 124 124 116 115 109 109 109 109 108 105 105 108 108 110 110 115 117 125 132 133 131 136 140 142 146 147 143 142 148 152 150 151 152 155 162 162
200 195 182 225 213 212 160 190 139 119 169 212 216 60 5 332 273 252 227 227 158 140 123 209 111 121 103 108 115 128 141 115 111 107 107 116 107 104 106 104 99 97 104 106 112 103 108 113 114 107 101 104 109 114 115 117 124 123 122 125 125 124 123 119 112 107 105 103 103 100 100 103 108 113 113 116 117 121 127 140 137 136 139 140 141 143 142 144 147 156 154 152 155 152 156 161 167
229 180 194 232 195 212 95 182 138 76 219 124 6 64 51 211 31 231 157 110 134 121 97 60 125 124 111 103 115 119 123 109 110 115 119 117 117 113 109 109 105 105 97 97 93 100 105 108 116 118 117 126 128 125 126 128 124 127 126 126 124 124 121 118 113 110 99 98 98 100 97 95 111 116 112 116 116 116 131 140 140 137 137 144 144 142 145 146 151 154 152 153 155 155 157 161 171
232 179 193 213 115 206 176 152 133 217 122 73 87 93 68 60 51 65 110 125 89 84 77 82 92 86 93 113 133 129 125 124 120 118 120 119 117 115 113 110 104 100 99 101 97 92 92 108 115 127 126 126 130 120 119 127 127 126 123 121 119 118 121 123 121 113 103 93 85 77 72 70 46 103 122 117 114 114 127 139 142 140 143 147 146 145 145 147 151 153 154 152 154 154 157 163 165
218 192 215 218 173 207 174 208 132 110 113 93 70 80 85 74 74 73 88 130 81 79 96 59 53 222 129 150 151 149 143 129 122 118 119 117 115 115 113 110 108 103 104 96 90 93 101 110 114 119 129 137 113 337 101 122 114 114 120 115 116 115 120 117 122 107 98 98 90 86 90 78 71 21 100 121 115 117 121 138 144 151 143 148 145 145 146 147 150 153 150 153 153 150 149 155 163
215 194 218 193 178 205 133 205 137 140 111 76 74 80 108 108 58 94 54 59 102 75 53 64 44 72 154 155 143 139 132 129 121 120 122 116 118 112 111 116 111 102 99 103 100 96 105 100 86 77 58 101 124 118 241 100 77 143 121 116 109 116 113 119 117 95 88 88 90 104 107 122 131 151 222 139 115 120 142 130 144 148 145 142 146 145 147 148 151 149 149 155 152 150 146 141 149
204 215 201 213 153 215 127 167 141 116 113 115 83 104 113 94 89 84 116 100 93 80 78 59 76 91 122 128 131 137 132 124 129 130 127 124 121 120 128 125 118 111 113 113 113 109 87 78 67 56 63 58 101 84 41 11 138 153 123 122 123 114 112 105 106 112 120 111 132 131 161 162 124 142 155 225 141 117 129 137 145 152 153 147 146 146 150 152 153 149 149 150 151 141 152 153 160
186 205 199 188 142 194 124 116 75 100 134 116 127 192 113 96 96 96 124 85 74 70 79 90 92 93 107 117 132 133 126 129 138 138 135 132 135 131 126 118 124 115 121 111 101 83 74 62 58 15 109 70 27 148 169 152 140 245 161 155 141 120 119 153 161 98 117 120 142 174 200 147 184 163 285 81 249 164 139 132 147 154 153 155 144 145 146 152 154 149 146 147 155 172 177 192 170
188 195 201 161 145 96 95 65 73 177 90 58 113 132 71 75 134 65 128 81 81 76 75 95 95 101 111 126 131 127 128 128 137 130 127 121 116 103 105 111 99 113 104 100 91 74 52 68 55 66 46 60 65 15 40 70 149 199 153 109 109 84 168 230 133 182 159 161 115 90 229 136 211 171 150 121 87 53 112 138 143 154 154 154 147 130 132 134 146 155 152 154 170 205 207 213 198
202 194 180 128 100 98 342 16 17 321 18 150 121 235 73 78 29 330 79 58 66 78 95 98 113 122 126 126 117 126 124 122 119 114 105 103 105 103 104 99 100 93 91 80 84 71 66 74 77 56 63 45 4 30 19 37 38 27 131 130 140 154 191 161 152 178 105 43 108 56 56 4 63 89 110 135 179 158 129 136 140 142 141 143 142 155 144 127 125 124 146 173 208 206 212 200 208
158 226 151 109 94 177 82 4 339 326 327 46 109 179 74 48 60 71 91 109 52 66 78 114 122 120 124 118 118 108 79 72 99 112 113 103 82 72 67 64 66 66 67 73 74 74 69 54 59 61 41 44 28 42 8 18 17 359 15 64 79 70 105 156 132 137 86 94 68 136 91 291 254 112 191 179 235 162 139 173 159 154 208 135 189 187 198 163 194 180 176 202 214 219 220 223 231
177 19 38 56 103 320 54 359 12 336 355 25 48 68 70 63 59 67 65 60 43 52 111 89 102 97 73 67 67 87 120 135 127 90 64 36 65 69 68 80 67 64 62 71 56 77 51 50 33 44 54 35 21 22 28 61 311 9 22 37 350 67 76 33 40 99 112 26 329 26 357 179 262 228 155 224 188 196 202 157 226 113 152 133 177 197 205 244 213 200 211 201 207 224 219 223 223
196 89 79 37 31 0 30 336 25 325 80 78 80 92 120 87 72 62 61 57 61 79 93 107 94 101 127 125 114 106 99 79 70 75 84 56 44 42 29 24 21 39 13 12 41 9 33 34 55 34 41 43 45 15 11 17 42 26 352 31 321 87 64 137 87 31 44 9 335 352 288 240 248 268 199 204 227 215 180 204 155 178 171 183 176 154 152 192 221 206 205 231 217 231 226 213 210
39 100 94 81 43 42 30 31 42 55 63 80 112 123 87 79 69 59 64 63 69 87 96 93 102 101 113 110 96 94 82 74 62 47 49 58 56 70 113 145 139 142 113 106 86 98 323 47 47 45 64 51 40 44 45 39 45 45 55 146 239 38 328 25 41 32 347 3 349 326 353 314 335 287 267 221 205 237 181 137 138 192 214 276 84 258 163 167 166 331 219 244 241 230 225 229 230
114 104 96 104 72 72 77 61 71 85 79 99 101 89 76 69 73 66 62 65 75 84 95 101 105 118 117 116 118 97 88 77 75 78 99 122 138 139 129 105 90 95 113 115 112 106 47 52 66 73 71 70 58 64 68 52 50 47 35 44 4 4 28 357 28 24 328 16 14 335 352 350 332 294 288 260 241 346 54 228 182 94 292 45 132 133 325 158 173 200 222 235 235 245 237 238 243
87 96 110 100 81 66 63 74 66 80 94 104 84 69 66 88 73 65 70 73 81 90 96 103 97 99 103 106 103 98 94 91 92 96 93 87 77 90 88 86 94 71 56 82 97 90 60 71 56 53 56 52 58 38 63 62 43 49 59 63 358 339 30 20 331 23 24 319 61 19 356 2 347 327 358 301 273 58 215 100 323 36 35 1 265 105 354 305 284 212 214 219 237 242 246 231 252
123 105 87 78 67 58 49 61 77 86 113 90 82 67 62 57 80 79 79 93 97 98 103 104 104 101 102 101 98 100 106 103 100 108 104 105 100 81 72 90 83 80 86 297 60 79 83 50 62 62 52 43 31 31 38 54 33 32 37 32 32 25 21 317 345 21 23 54 33 17 352 32 347 38 321 309 280 206 187 277 265 17 336 26 301 59 11 318 306 293 279 298 254 255 242 240 249
131 128 112 94 77 53 41 58 70 116 102 89 79 74 66 63 66 77 88 109 106 107 108 106 101 97 90 75 89 99 89 70 81 100 105 95 77 81 73 56 60 71 76 45 2 41 63 52 54 55 43 47 14 37 48 47 42 51 51 35 51 26 325 308 21 24 34 37 22 358 360 353 297 129 147 228 279 261 221 301 299 266 92 216 317 346 246 254 275 308 317 293 296 283 273 249 235
141 165 125 106 82 50 25 30 54 101 122 158 117 71 48 47 65 76 82 91 102 105 102 100 95 91 90 101 90 83 85 100 89 73 81 78 74 56 67 56 57 52 65 62 108 68 57 56 61 69 64 43 32 38 30 43 36 79 78 60 72 26 282 351 13 43 44 41 27 1 345 351 319 208 167 175 189 215 169 235 239 17 309 345 330 5 288 232 238 242 219 267 275 262 257 250 250
177 196 163 154 89 36 19 23 68 87 72 277 264 79 44 48 62 84 98 104 109 112 108 99 94 91 91 86 83 80 87 97 96 89 86 84 74 65 59 53 61 51 78 143 183 82 86 89 49 65 44 47 14 26 22 23 35 46 72 77 89 250 27 350 27 32 45 68 59 34 349 1 349 349 333 289 243 191 177 195 198 167 297 303 225 241 240 264 253 265 280 252 237 258 250 249 240
194 137 206 190 109 52 28 27 34 82 56 199 243 115 78 52 61 92 111 113 114 103 99 96 95 95 91 86 84 87 89 86 84 79 76 66 59 56 52 60 52 62 56 76 54 83 94 99 96 79 64 41 5 26 5 17 27 354 62 89 74 330 46 24 38 46 48 46 55 70 26 23 8 359 347 346 334 314 246 215 260 308 298 266 261 138 279 250 254 247 249 257 247 249 256 247 264
143 204 159 182 133 106 52 40 36 72 68 88 91 89 81 62 69 80 116 126 113 111 107 108 104 99 95 97 97 96 90 88 82 70 64 70 70 67 55 44 51 49 32 26 53 64 87 109 110 81 70 51 33 19 12 358 1 355 354 35 66 37 9 58 48 52 32 35 66 62 54 31 25 18 4 352 331 335 333 337 335 11 348 309 344 29 264 253 258 273 293 277 259 248 250 249 238
181 222 176 142 145 133 68 33 66 87 72 54 195 117 128 81 72 101 122 126 118 117 118 111 109 107 100 95 96 95 93 76 62 50 47 50 49 50 49 42 43 35 40 23 31 51 50 82 92 87 70 54 45 48 17 14 338 341 342 350 356 325 329 61 75 60 58 52 38 47 52 32 31 23 11 359 342 336 334 343 357 344 333 346 3 265 232 250 231 215 189 251 280 270 247 254 252
133 245 153 14 128 121 89 76 63 80 89 80 82 100 89 93 83 98 117 124 130 126 115 112 111 107 103 101 97 90 77 70 64 62 61 54 48 43 43 39 36 21 25 16 25 19 24 36 55 59 66 58 32 16 11 327 1 316 318 341 349 335 359 1 37 20 52 43 50 58 50 36 38 27 352 354 335 322 3 2 345 318 307 282 249 248 269 255 257 246 210 197 248 262 251 239 240
173 159 156 131 60 74 120 126 89 92 91 93 91 92 88 79 80 89 110 118 119 120 116 115 109 103 100 95 86 77 75 74 71 67 65 65 63 55 47 34 25 19 9 5 16 11 15 34 40 48 50 43 40 16 333 306 311 280 265 273 284 298 286 70 336 327 39 31 66 70 61 48 41 15 356 345 332 337 30 23 332 356 273 275 267 270 246 252 260 257 260 207 217 256 289 297 295
247 239 155 136 134 133 112 98 96 98 94 89 94 97 97 81 83 93 104 109 114 112 114 112 108 104 100 94 88 85 79 75 68 66 64 59 54 48 42 34 37 46 21 4 356 4 12 22 37 35 26 14 357 354 331 316 336 332 331 303 253 290 311 259 295 307 265 66 81 36 68 95 62 253 256 356 301 334 301 299 51 252 277 275 297 298 307 309 317 299 293 287 257 234 240 263 263
128 143 112 93 100 100 102 101 105 101 93 89 96 94 87 83 78 70 89 117 119 117 117 112 108 104 102 98 93 88 81 76 74 67 62 65 61 53 48 38 28 37 33 23 16 19 16 13 18 24 18 10 357 348 345 332 331 319 278 292 301 237 263 298 220 257 311 64 337 4 113 234 199 235 251 241 248 248 260 210 231 239 252 289 328 353 350 342 332 314 309 290 285 275 243 253 281
121 123 126 135 142 112 83 118 188 127 110 104 99 96 89 86 85 86 98 104 105 112 114 109 103 100 96 94 90 83 81 76 73 72 69 66 65 61 50 43 37 33 27 18 10 6 14 13 12 7 11 6 359 341 320 304 311 323 312 310 310 304 284 259 279 183 280 83 221 198 210 202 199 213 204 207 250 269 254 240 242 244 266 274 313 357 307 304 279 278 289 275 252 288 279 303 321
180 106 93 91 86 105 93 90 106 109 108 108 103 88 85 88 91 90 83 85 84 89 87 99 105 96 87 79 80 88 86 80 72 67 65 66 65 62 57 53 51 43 35 28 18 9 6 2 1 359 1 348 343 327 318 315 312 298 291 305 289 293 234 312 316 317 304 292 257 236 225 209 216 234 231 231 227 230 258 274 262 266 267 278 254 229 226 236 263 272 259 277 285 239 289 200 303
123 131 165 125 143 169 143 140 130 117 119 128 111 97 93 90 83 80 87 101 103 79 84 85 89 85 79 75 76 80 87 84 77 67 65 66 71 66 58 54 51 47 41 41 36 27 14 356 346 339 333 323 310 313 304 305 302 302 289 290 286 281 299 248 240 257 261 256 255 246 259 243 239 271 261 239 235 234 245 244 253 250 249 251 263 255 248 243 224 239 241 247 260 280 242 219 228
45 3 122 151 190 141 157 144 119 104 109 117 109 97 78 72 90 94 93 100 104 112 104 94 88 85 86 90 85 79 76 74 77 73 63 54 56 54 53 50 48 45 40 42 43 35 24 14 354 341 332 339 336 337 324 313 302 278 258 255 259 259 246 245 237 240 242 261 269 260 259 256 267 265 269 268 272 257 243 249 248 249 244 236 248 254 246 242 238 239 251 264 259 278 278 264 224
73 47 82 115 154 119 110 122 117 140 144 165 159 107 72 69 81 97 108 107 104 107 102 94 88 88 88 84 78 76 71 62 56 54 52 53 55 55 51 48 44 38 36 33 33 37 32 24 13 356 344 347 353 353 344 327 316 302 293 274 252 237 246 238 247 249 249 255 269 289 268 268 276 274 273 277 279 271 256 252 257 258 248 239 236 252 255 241 243 257 232 244 241 233 271 275 252
103 86 112 143 95 71 24 151 149 158 160 141 254 148 121 113 100 109 111 105 103 101 95 93 91 84 78 69 63 61 59 62 61 56 52 52 51 51 51 44 38 36 32 31 32 30 27 24 20 14 11 0 356 345 334 329 322 318 307 305 310 302 281 253 251 258 266 273 264 265 279 282 272 267 264 265 261 261 263 256 249 255 259 246 240 248 246 241 236 229 217 230 254 249 241 263 259
99 136 134 124 115 115 201 235 167 131 103 95 163 125 129 128 94 107 110 105 100 95 89 85 82 78 69 67 63 56 55 52 53 53 51 51 50 48 47 43 37 33 26 28 30 28 26 25 20 21 22 19 14 3 356 359 334 337 334 321 298 295 305 313 302 280 267 263 266 264 274 258 254 260 265 265 269 263 251 253 250 247 253 254 245 238 242 236 241 236 228 253 256 264 257 261 257
115 143 135 129 144 160 221 208 121 144 115 91 89 114 114 111 134 151 147 121 109 97 92 88 81 76 71 63 59 62 60 60 56 53 51 50 49 48 44 43 39 33 29 30 30 27 27 26 26 25 28 26 25 19 12 13 4 351 344 339 334 331 275 266 303 319 317 304 285 280 277 268 257 248 255 264 266 270 260 249 249 245 245 252 243 242 240 236 229 235 216 228 235 241 245 250 257
124 143 138 141 159 155 199 129 137 142 155 97 84 325 118 122 138 162 173 133 127 113 102 88 77 68 62 58 59 60 64 64 67 64 57 53 50 50 47 43 40 31 28 28 30 33 31 28 30 30 29 29 26 23 19 19 12 357 350 344 335 329 331 331 336 336 313 312 311 309 286 279 280 244 238 251 262 269 263 256 248 242 243 245 251 256 239 231 223 222 219 225 227 238 232 230 237
131 140 141 144 153 154 209 118 142 133 95 91 79 132 163 134 170 157 175 120 107 126 114 99 96 81 69 64 58 55 57 61 60 64 61 57 52 45 40 40 36 33 27 27 26 28 31 31 26 32 31 29 25 24 22 24 26 19 11 355 341 329 326 325 323 328 335 310 310 304 318 313 308 306 288 268 261 269 264 260 259 259 244 241 246 250 243 234 223 220 217 217 221 225 224 222 229
151 148 156 159 148 165 182 154 201 184 109 100 105 105 277 178 157 166 105 119 124 121 117 111 91 71 64 58 58 58 59 58 60 60 62 56 50 41 35 35 33 29 25 23 23 23 28 31 28 30 28 25 25 25 24 23 22 18 14 9 3 351 345 337 329 326 328 320 317 313 303 295 304 298 305 284 275 270 268 265 259 255 254 245 243 246 246 236 231 221 219 215 217 215 221 217 219
196 163 176 188 125 182 146 168 173 103 112 126 151 187 209 60 98 131 136 139 125 104 97 102 89 82 71 70 68 67 67 67 65 67 63 57 45 37 32 32 35 28 24 23 20 16 20 25 23 25 28 19 20 21 21 20 18 15 9 6 4 357 354 347 342 339 336 330 329 325 317 309 298 278 297 306 306 303 285 264 265 258 251 243 240 251 247 242 240 233 229 221 222 213 212 215 215
158 191 180 184 129 137 128 108 77 118 122 142 159 255 18 112 117 128 140 128 122 123 105 80 80 72 64 73 79 81 73 68 73 60 57 47 35 30 30 34 34 30 24 19 17 15 18 21 21 24 29 23 20 19 18 16 18 12 8 6 359 354 351 344 341 334 337 327 323 316 315 317 317 306 305 305 300 286 284 291 284 287 277 261 246 243 247 247 237 234 231 229 227 220 219 213 223
53 357 220 0 18 108 178 169 172 112 130 146 113 241 138 190 114 147 143 140 137 138 126 98 77 88 90 79 87 94 91 80 68 64 51 45 38 30 37 35 33 33 22 14 12 13 15 21 21 26 29 29 25 21 21 18 14 15 14 9 4 358 351 344 338 336 328 323 314 311 308 307 299 307 310 305 299 287 287 287 284 273 264 270 261 248 245 243 236 233 237 229 229 226 221 216 221
178 9 298 256 59 353 21 30 34 123 134 156 163 30 78 88 85 131 169 170 159 153 131 127 117 93 88 107 76 67 80 70 66 68 63 50 44 37 46 41 30 27 26 17 14 17 17 20 25 26 28 27 26 24 26 23 20 20 16 17 12 6 358 348 345 340 333 321 314 311 310 306 304 302 297 293 298 295 288 281 278 268 265 264 264 252 243 240 236 233 236 233 227 223 222 218 220
122 213 204 40 1 317 124 121 39 347 220 105 131 181 191 122 192 172 195 181 175 176 160 165 139 120 110 67 74 77 63 73 58 51 47 32 40 36 40 39 37 19 22 27 19 19 19 11 17 24 22 23 21 22 21 20 20 20 20 14 10 6 1 356 349 342 338 331 320 312 303 300 296 284 287 291 290 289 291 288 279 274 267 257 255 257 251 243 239 234 235 234 232 227 222 221 218
252 179 69 101 20 340 278 98 144 220 163 126 200 191 167 204 192 178 190 194 188 191 180 172 151 152 176 107 111 83 72 62 58 62 56 39 28 31 20 33 37 32 17 35 26 12 34 10 18 12 17 13 17 13 13 13 9 11 9 7 5 2 358 357 353 347 342 337 334 327 321 316 315 312 304 301 286 275 280 289 284 278 271 265 264 261 257 252 246 239 234 237 232 229 225 223 220
7 67 104 250 143 173 148 139 169 188 75 144 192 191 233 226 152 176 185 196 190 190 190 179 175 173 163 138 116 87 94 115 110 28 29 35 35 28 32 15 30 31 37 25 26 24 25 16 18 15 10 11 10 11 3 6 3 2 1 358 358 356 356 353 354 349 343 341 341 337 331 326 320 319 312 304 301 296 291 283 281 281 277 272 265 260 254 252 247 243 234 236 236 231 228 226 221
65 156 156 38 288 23 161 14 350 297 123 162 129 166 242 209 159 181 178 194 189 186 193 196 182 178 199 185 231 160 153 198 264 87 28 36 34 24 38 10 10 16 24 23 26 11 16 15 18 14 11 10 9 4 357 359 356 354 349 347 348 345 349 344 348 347 341 344 343 340 337 331 327 317 315 309 303 298 291 286 283 279 279 273 266 264 263 257 246 246 242 232 237 236 233 233 230
151 201 155 160 355 11 345 125 295 332 157 167 148 175 138 80 104 167 170 180 186 188 191 188 196 182 196 190 125 285 115 174 231 309 101 114 67 22 46 8 9 3 27 16 16 359 19 10 10 8 360 5 359 356 349 349 339 341 333 339 335 334 335 336 336 339 332 337 340 335 336 331 325 322 319 312 305 299 297 293 289 284 279 277 272 261 259 265 272 255 242 240 228 219 236 236 233
7 351 58 14 184 169 214 118 189 264 289 134 241 107 83 71 333 159 167 177 179 184 189 190 199 194 197 188 188 219 231 182 204 207 195 148 107 57 318 55 354 27 12 5 9 359 5 4 1 355 354 0 349 346 342 336 335 327 327 327 327 322 329 329 326 325 327 328 332 333 331 328 324 321 319 316 311 308 300 296 292 289 284 275 275 273 257 245 242 247 246 239 229 220 217 238 244